Weather History for Alexandria Esle, LA

Change the Weather History Date:

Tuesday, October 16, 2012

  Actual Average Record
Temperature  
Mean Temperature 62 °F -  
Max Temperature 75 °F 77 °F 89 °F (1972)
Min Temperature 50 °F 55 °F 37 °F (1961)
Degree Days  
Heating Degree Days 2    
Growing Degree Days 12 (Base 50)    
Moisture  
Dew Point 54 °F    
Average Humidity 84    
Maximum Humidity 96    
Minimum Humidity 46    
Precipitation  
Precipitation 0.01 in - - ()
Sea Level Pressure  
Sea Level Pressure 29.94 in    
Wind  
Wind Speed 1 mph (SE)    
Max Wind Speed 8 mph    
Max Gust Speed -    
Visibility 7 miles    
Events      
Averages and records for this station are not official NWS values.
T = Trace of Precipitation, MM = Missing Value Source: NWS Daily Summary

Daily Weather History Graph

Daily Weather History Graph

Search for Another Location

Airport:

Trip Planner

Search our weather history database for the weather conditions in past years. The results will help you decide how hot, cold, wet, or windy it might be!

Date:

Astronomy

Oct. 16, 2012 Rise Set
Actual Time 7:13 AM CDT 6:35 PM CDT
Civil Twilight 6:48 AM CDT 7:00 PM CDT
Nautical Twilight 6:20 AM CDT 7:28 PM CDT
Astronomical Twilight 5:52 AM CDT 7:56 PM CDT
Moon 8:28 AM CDT (10/16) 7:29 PM CDT (10/16)
Length of Visible Light 12h 11m
Length of Day
11h 22m
New Moon, 2% of the Moon is Illuminated
Oct 16
New Moon
Oct 21
First Quarter
Oct 29
Full
Nov 6
Last Quarter
Nov 13
New

Hourly Weather History & Observations

Time (CDT) Temp. Dew Point Humidity Pressure Visibility Wind Dir Wind Speed Gust Speed Precip Events Conditions
12:53 AM 54.0 °F 52.0 °F 93% 30.01 in 3.0 mi Calm Calm - N/A   Clear
12:59 AM 53.6 °F 51.8 °F 94% 30.01 in 1.8 mi Calm Calm - N/A   Clear
1:16 AM 53.6 °F 51.8 °F 94% 30.01 in 1.8 mi Calm Calm - N/A   Clear
1:26 AM 53.6 °F 51.8 °F 94% 30.00 in 0.8 mi Calm Calm - N/A   Mist
1:32 AM 53.6 °F 51.8 °F 94% 30.00 in 1.2 mi Calm Calm - N/A   Partly Cloudy
1:35 AM 53.6 °F 51.8 °F 94% 30.00 in 3.0 mi Calm Calm - N/A   Partly Cloudy
1:53 AM 53.1 °F 51.1 °F 93% 29.99 in 2.5 mi Calm Calm - N/A   Clear
2:01 AM 53.6 °F 51.8 °F 94% 29.99 in 1.2 mi Calm Calm - 0.01 in   Clear
2:09 AM 53.6 °F 51.8 °F 94% 29.99 in 3.0 mi Calm Calm - 0.01 in   Clear
2:31 AM 53.6 °F 50.0 °F 88% 29.98 in 2.0 mi Calm Calm - 0.01 in   Clear
2:41 AM 51.8 °F 50.0 °F 94% 29.98 in 7.0 mi Calm Calm - 0.01 in   Clear
2:49 AM 51.8 °F 50.0 °F 94% 29.98 in 1.5 mi Calm Calm - 0.01 in   Clear
2:53 AM 52.0 °F 50.0 °F 93% 29.97 in 1.2 mi Calm Calm - 0.01 in   Clear
2:59 AM 51.8 °F 50.0 °F 94% 29.97 in 4.0 mi Calm Calm - N/A   Clear
3:53 AM 52.0 °F 50.0 °F 93% 29.96 in 8.0 mi Calm Calm - N/A   Clear
4:53 AM 50.0 °F 48.9 °F 96% 29.95 in 5.0 mi Calm Calm - N/A   Clear
5:53 AM 51.1 °F 48.9 °F 92% 29.96 in 9.0 mi Calm Calm - N/A   Clear
6:53 AM 51.8 °F 50.0 °F 94% 29.97 in 10.0 mi Calm Calm - N/A   Clear
7:53 AM 53.1 °F 51.1 °F 93% 29.97 in 10.0 mi Calm Calm - N/A   Clear
8:53 AM 61.0 °F 55.9 °F 83% 29.98 in 10.0 mi Calm Calm - N/A   Clear
9:53 AM 66.9 °F 57.0 °F 70% 29.99 in 10.0 mi SE 5.8 mph - N/A   Clear
10:53 AM 71.1 °F 55.9 °F 59% 29.99 in 10.0 mi SE 6.9 mph - N/A   Clear
11:53 AM 72.0 °F 55.9 °F 57% 29.98 in 10.0 mi SE 5.8 mph - N/A   Clear
12:53 PM 73.9 °F 55.9 °F 53% 29.94 in 10.0 mi ESE 8.1 mph - N/A   Clear
1:53 PM 75.0 °F 53.1 °F 46% 29.90 in 10.0 mi SE 8.1 mph - N/A   Clear
2:53 PM 73.9 °F 55.0 °F 52% 29.88 in 10.0 mi SE 4.6 mph - N/A   Clear
3:53 PM 73.9 °F 55.9 °F 53% 29.88 in 10.0 mi Calm Calm - N/A   Clear
4:53 PM 72.0 °F 62.1 °F 71% 29.86 in 10.0 mi Calm Calm - N/A   Clear
5:53 PM 68.0 °F 62.1 °F 81% 29.86 in 10.0 mi Calm Calm - N/A   Clear
6:53 PM 66.0 °F 63.0 °F 90% 29.85 in 10.0 mi Calm Calm - N/A   Clear
7:53 PM 64.9 °F 63.0 °F 93% 29.84 in 10.0 mi Calm Calm - N/A   Clear
8:53 PM 66.9 °F 60.1 °F 79% 29.83 in 10.0 mi Calm Calm - N/A   Clear
9:53 PM 64.0 °F 61.0 °F 90% 29.84 in 10.0 mi Calm Calm - N/A   Clear
10:53 PM 63.0 °F 60.1 °F 90% 29.83 in 10.0 mi Calm Calm - N/A   Clear
11:53 PM 61.0 °F 59.0 °F 93% 29.83 in 4.0 mi Calm Calm - N/A   Clear